Regional Weather Roundup
Issued by NWS Burlington, VT

Current Version | Previous Version | Text Only | Print | Product List | Glossary Off
Versions: 1 2 3 4 5 6 7 8 9 10 11 12 13 14 15 16 17 18 19 20 21 22 23 24 25 26 27 28 29 30 31 32 33 34 35 36 37 38 39 40 41 42 43 44 45 46 47 48 49 50

192
ASUS41 KBTV 231830
RWRBTV
VERMONT REGIONAL WEATHER ROUNDUP
NATIONAL WEATHER SERVICE BURLINGTON VT
200 PM EDT THU MAR 23 2017

NOTE: "FAIR" INDICATES FEW OR NO CLOUDS BELOW 12,000 FEET WITH NO
SIGNIFICANT WEATHER AND/OR OBSTRUCTIONS TO VISIBILITY.

* THESE REPORTS ARE NOT UNDER NWS QUALITY CONTROL AND/OR DO NOT
  REPORT WEATHER SUCH AS PRECIPITATION AND FOG.

VTZ001>019-231900-
_____VERMONT_____


CITY           SKY/WX    TMP DP  RH WIND       PRES   REMARKS
BURLINGTON     MOSUNNY   30   3  31 N13G22    30.48F WCI  20
6HR MIN TEMP:   6; 6HR MAX TEMP:  31;

MONTPELIER     SUNNY     25   2  37 NW13G25   30.43F WCI  14
6HR MIN TEMP:   9; 6HR MAX TEMP:  25;

MORRISVILLE    SUNNY     27  -2  28 N13G25    30.45S WCI  16
6HR MIN TEMP:  -3; 6HR MAX TEMP:  27; 6HR PCP: TRACE;

ST. JOHNSBURY*   N/A     28  -1  28 MISG      30.40F
6HR MIN TEMP:   4; 6HR MAX TEMP:  28;

LYNDONVILLE*   FAIR      24  -3  31 W16G25    30.40S WCI  11
6HR MIN TEMP:  10; 6HR MAX TEMP:  23;

MIDDLEBURY*    FAIR      30   1  29 NW7       30.46F WCI  23
6HR MIN TEMP:   8; 6HR MAX TEMP:  29;

RUTLAND*       SUNNY     29   2  31 NW13G21   30.44F WCI  19
6HR MIN TEMP:   5; 6HR MAX TEMP:  29;

SPRINGFIELD    SUNNY     32  -4  21 W16G25    30.43F WCI  21
6HR MIN TEMP:  15; 6HR MAX TEMP:  32;

HIGHGATE*      FAIR      29   4  34 NW6       30.50S WCI  22
6HR MIN TEMP:   0; 6HR MAX TEMP:  28;

NEWPORT*       FAIR      23  -3  32 NW17G23   30.42S WCI   9
6HR MIN TEMP:   9; 6HR MAX TEMP:  23;

BENNINGTON     SUNNY     28  -1  28 NW8       30.46F WCI  20
6HR MIN TEMP:  12; 6HR MAX TEMP:  28;

SUTTON*          N/A     23 N/A N/A MISG        N/A
ISLAND POND*     N/A     23 N/A N/A NW8         N/A  WCI  14
GALLUP MILLS*    N/A     25 N/A N/A MISG        N/A
UNION VILLAGE*   N/A     30 N/A N/A MISG        N/A
MT. MANSFIELD*   N/A     10 N/A N/A W36         N/A  WCI -13

_____LAKE CHAMPLAIN_____


CITY           SKY/WX    TMP DP  RH WIND       PRES   REMARKS
BURTON ISLAND*   N/A     30   7  37 NW9         N/A  WCI  22
COLCHESTER RF*   N/A     32   5  32 N18         N/A  WCI  20
DIAMOND ISL*     N/A     30   5  34 N15         N/A  WCI  19

$$

NYZ007-026>031-035-052-083-087-231900-
_____NORTHERN NEW YORK_____


CITY           SKY/WX    TMP DP  RH WIND       PRES   REMARKS
PLATTSBURGH    SUNNY     32  -1  24 NW14G23   30.49S WCI  22
6HR MIN TEMP:  16; 6HR MAX TEMP:  32; 6HR PCP: TRACE;

SARANAC LAKE   SUNNY     27  -4  26 NW8       30.39F WCI  19
6HR MIN TEMP: -17; 6HR MAX TEMP:  27;

POTSDAM*       SUNNY     30  10  43 W5G13     30.52S WCI  25
STARK FALLS*     N/A     28 N/A N/A NW8         N/A  WCI  20
WATERTOWN      SUNNY     30  14  51 W16G23    30.56F WCI  19
6HR MIN TEMP:  10; 6HR MAX TEMP:  30;

FT DRUM        SUNNY     30   6  36 W10       30.52S WCI  21
6HR MIN TEMP:   9; 6HR MAX TEMP:  30;

ALBANY         MOSUNNY   34   3  27 NW14G21   30.52F WCI  25
6HR MIN TEMP:  16; 6HR MAX TEMP:  34;

GLENS FALLS    SUNNY     34   2  25 SW5       30.48F WCI  30
6HR MIN TEMP:  18; 6HR MAX TEMP:  34;


$$
NHZ002-005-011-231900-
_____NEW HAMPSHIRE_____


CITY           SKY/WX    TMP DP  RH WIND       PRES   REMARKS
LEBANON        SUNNY     32   1  26 N14G24    30.41F WCI  22
6HR MIN TEMP:  10; 6HR MAX TEMP:  32; 6HR PCP: TRACE;

KEENE          SUNNY     32   0  25 NW18G24   30.43F WCI  20
6HR MIN TEMP:  17; 6HR MAX TEMP:  32; 6HR PCP: TRACE;

MT WASHINGTON  MOSUNNY   -4 -11  71 NW64G71     N/A  WCI -40
6HR MIN TEMP: -14; 6HR MAX TEMP:  -3;

PLYMOUTH       FAIR      31  -1  25 NW14G20   30.38F WCI  21
6HR MIN TEMP:  15; 6HR MAX TEMP:  30;

WHITEFIELD     SUNNY     26  -1  31 NW17G24   30.36F WCI  13
6HR MIN TEMP:   9; 6HR MAX TEMP:  26;


$$

_____REGIONAL QUEBEC LOCATIONS_____


CITY           SKY/WX    TMP DP  RH WIND       PRES   REMARKS
MONTREAL       SUNNY     28   3  34 W17       30.49F WCI  16
QUEBEC CITY    MOSUNNY   23   0  36 W14G21    30.39F WCI  11
SHERBROOKE     SUNNY     19   0  42 W18G28    30.41S WCI   4

_____REGIONAL ONTARIO LOCATIONS_____


CITY           SKY/WX    TMP DP  RH WIND       PRES   REMARKS
OTTAWA         MOSUNNY   30   5  34 W16G22    30.50F WCI  19

______KEY______
VSB  - VISIBILITY IN MILES
WCI  - WIND CHILL INDEX
HX   - HEAT INDEX
$$
NNNN




USA.gov is the U.S. government's official web portal to all federal, state and local government web resources and services.